Lake Piru Weather Center

Moon Phase Calendar



Lake Piru Water Level
Online Cameras

 


      

Current Conditions in Piru
9/30/2022 3:40:49 AM

62°F
Feels Like 61
Clear
Humidity
60%
Pressure
29.91"
Wind
3 mph (NNE)
Dew Point
48°F
UV Index
0/10 (Low)
Visibility
6 mi

Hourly Forecast

Date & Time Fri, Sep 30
3:00 AM
Fri, Sep 30
4:00 AM
Fri, Sep 30
5:00 AM
Fri, Sep 30
6:00 AM
Fri, Sep 30
7:00 AM
Fri, Sep 30
8:00 AM
Fri, Sep 30
9:00 AM
Fri, Sep 30
10:00 AM
Fri, Sep 30
11:00 AM
Fri, Sep 30
12:00 PM
Fri, Sep 30
1:00 PM
Fri, Sep 30
2:00 PM
Fri, Sep 30
3:00 PM
Fri, Sep 30
4:00 PM
Fri, Sep 30
5:00 PM
Fri, Sep 30
6:00 PM
Fri, Sep 30
7:00 PM
Fri, Sep 30
8:00 PM
Fri, Sep 30
9:00 PM
Fri, Sep 30
10:00 PM
Fri, Sep 30
11:00 PM
Sat, Oct 1
12:00 AM
Sat, Oct 1
1:00 AM
Sat, Oct 1
2:00 AM
Sat, Oct 1
3:00 AM
Sat, Oct 1
4:00 AM
Sat, Oct 1
5:00 AM
Sat, Oct 1
6:00 AM
Sat, Oct 1
7:00 AM
Sat, Oct 1
8:00 AM
Sat, Oct 1
9:00 AM
Sat, Oct 1
10:00 AM
Sat, Oct 1
11:00 AM
Sat, Oct 1
12:00 PM
Sat, Oct 1
1:00 PM
Sat, Oct 1
2:00 PM
Sat, Oct 1
3:00 PM
Sat, Oct 1
4:00 PM
Sat, Oct 1
5:00 PM
Sat, Oct 1
6:00 PM
Sat, Oct 1
7:00 PM
Sat, Oct 1
8:00 PM
Sat, Oct 1
9:00 PM
Sat, Oct 1
10:00 PM
Sat, Oct 1
11:00 PM
Sun, Oct 2
12:00 AM
Sun, Oct 2
1:00 AM
Sun, Oct 2
2:00 AM
Condition
Clear

Clear

Clear

Clear

Clear

Clear

Clear

Clear

Clear

Clear

Clear

Clear

Clear

Clear

Clear

Clear

Clear

Clear

Clear

Clear

Clear

Clear

Clear

Clear

Clear

Clear

Clear

Clear

Clear

Clear

Clear

Clear

Clear

Clear

Clear

Clear

Clear

Clear

Clear

Clear

Clear

Clear

Clear

Clear

Clear

Clear

Clear

Clear
Temperature 63°F62°F63°F64°F65°F70°F78°F81°F85°F87°F89°F90°F90°F88°F84°F79°F72°F70°F69°F69°F68°F67°F67°F66°F65°F65°F64°F64°F64°F69°F75°F79°F83°F86°F88°F89°F89°F87°F84°F78°F70°F69°F68°F67°F67°F67°F66°F66°F
Feels Like 62°F61°F62°F63°F64°F69°F77°F80°F82°F84°F86°F86°F86°F85°F83°F79°F72°F70°F69°F68°F68°F67°F66°F66°F65°F64°F64°F63°F63°F68°F74°F79°F81°F83°F84°F85°F85°F84°F82°F78°F70°F68°F68°F67°F66°F66°F65°F65°F
Cloudiness 0%0%0%0%0%0%0%0%0%0%0%0%0%0%0%0%0%0%0%0%0%0%0%0%0%0%0%0%0%0%0%0%0%0%0%0%0%0%0%0%0%0%0%0%0%0%0%0%
Visibility 6 mi6 mi6 mi6 mi6 mi6 mi6 mi6 mi6 mi6 mi6 mi6 mi6 mi6 mi6 mi6 mi6 mi6 mi6 mi6 mi6 mi6 mi6 mi6 mi6 mi6 mi6 mi6 mi6 mi6 mi6 mi6 mi6 mi6 mi6 mi6 mi6 mi6 mi6 mi6 mi6 mi6 mi6 mi6 mi6 mi6 mi6 mi6 mi
Precipitation 0%0%0%0%0%0%0%0%0%0%0%0%0%0%0%0%0%0%0%0%0%0%0%0%0%0%0%0%0%0%0%0%0%0%0%0%0%0%0%0%0%0%0%0%0%0%0%0%
Humidity 58%60%59%58%56%47%38%33%26%22%20%20%21%26%35%46%62%66%67%67%66%67%68%68%68%67%67%67%66%55%45%34%28%23%20%19%20%25%33%46%64%67%68%66%63%62%61%59%
Dew Point 48°F48°F49°F49°F49°F49°F48°F47°F44°F42°F41°F41°F43°F47°F52°F55°F56°F56°F55°F55°F54°F54°F53°F52°F52°F51°F51°F50°F50°F50°F50°F47°F44°F42°F40°F40°F41°F45°F49°F54°F55°F55°F54°F53°F52°F51°F50°F49°F
Pressure 29.91"29.91"29.91"29.91"29.91"29.91"29.88"29.88"29.85"29.85"29.83"29.8"29.77"29.77"29.77"29.77"29.8"29.83"29.83"29.83"29.83"29.83"29.83"29.83"29.83"29.83"29.83"29.83"29.85"29.85"29.85"29.85"29.83"29.83"29.8"29.8"29.77"29.77"29.77"29.8"29.83"29.83"29.85"29.85"29.85"29.85"29.85"29.85"
Wind Speed 2.3 mph3 mph3.7 mph4.2 mph4 mph2.7 mph2.7 mph4.5 mph5.4 mph7 mph8.1 mph8.9 mph9.4 mph9.5 mph8.5 mph6.1 mph4 mph2 mph1.1 mph1.3 mph1.8 mph2.4 mph2.7 mph2.8 mph2.5 mph2.4 mph2.5 mph2.8 mph2.9 mph2.2 mph2.5 mph4.6 mph5.9 mph6.4 mph7.3 mph7.9 mph8.4 mph9.4 mph7.6 mph5.8 mph3.6 mph2 mph1.4 mph2.1 mph2.6 mph2.5 mph2.9 mph3.1 mph
Wind
Direction
18°
NNE
21°
NNE
30°
NNE
21°
NNE
12°
NNE
27°
NNE
133°
SE
168°
SSE
180°
S
183°
S
189°
S
189°
S
191°
S
201°
SSW
211°
SSW
217°
SW
236°
SW
270°
W
301°
WNW
346°
NNW
26°
NNE
36°
NE
19°
NNE
11°
N

N

N
11°
N
15°
NNE
12°
NNE
39°
NE
112°
ESE
158°
SSE
176°
S
188°
S
193°
SSW
197°
SSW
201°
SSW
209°
SSW
213°
SSW
220°
SW
255°
WSW
290°
WNW
310°
NW
352°
N
11°
N
15°
NNE
11°
N

N

Daily Forecast

Date High Low Precip. Humidity
Today
Sep 30

Clear
90 °F
62 °F
0%
22%
Saturday
Oct 1

Clear
89 °F
64 °F
0%
23%
Sunday
Oct 2

Clear
90 °F
66 °F
0%
17%
Monday
Oct 3

Clear
92 °F
70 °F
0%
21%
Tuesday
Oct 4

Clear
92 °F
71 °F
0%
21%
Wednesday
Oct 5

Clear
94 °F
72 °F
0%
19%
Thursday
Oct 6

Clouds
94 °F
73 °F
0%
20%
Friday
Oct 7

Clear
94 °F
73 °F
0%
19%
Saturday
Oct 8

Clear
94 °F
72 °F
0%
17%
Sunday
Oct 9

Clear
91 °F
70 °F
0%
18%
Monday
Oct 10

Clouds
88 °F
66 °F
0%
14%
Tuesday
Oct 11

Clouds
84 °F
63 °F
0%
31%
Wednesday
Oct 12

Clear
90 °F
62 °F
0%
27%
Thursday
Oct 13

Clear
87 °F
66 °F
0%
28%
Friday
Oct 14

Clear
84 °F
64 °F
0%
33%
Saturday
Oct 15

Clouds
78 °F
61 °F
0%
44%

Temperature 8-14 Day Outlook



Precipitation 8-14 Day Outlook




Quick Links
Lake Piru News
Lake Piru Photos
Lake Piru Videos




About Us
Contact Us
Site Map
Search Site
Advertise With Us
   
Piru.USLakes.info
THE LAKE PIRU WEBSITE

Copyright 2022, Lakes Online
Privacy    |    Legal